{"data":{"norad_id":43782,"epoch":"2026-05-25T02:52:47.378784Z","epoch_age_seconds":74805,"freshness":"FRESH","line1":"1 43782U 18099AA  26145.11999281  .00007264  00000+0  32606-3 0  9997","line2":"2 43782  97.4076 198.8630 0010635  26.5214 333.6564 15.21427291409523","mean_motion":15.21427291,"eccentricity":0.0010635,"inclination_deg":97.4076,"raan_deg":198.863,"arg_perigee_deg":26.5214,"mean_anomaly_deg":333.6564,"bstar":0.00032606,"rev_number":40952,"period_min":94.647966979317,"perigee_km":494.21804914023,"apogee_km":508.8511105906,"semimajor_km":6879.6715798654,"source":"CELESTRAK","updated_at":"2026-05-25T13:37:55.895677Z"}}